sat.trackr.live / text

‹ back to catalog

2025-108F

NORAD 64092 · 2025-108F

PAYLOAD ACTIVE UNKNOWN

§ Identity

Operator
Country
PRC
Launch date
2025-05-21
Launch site
JSC
Launch vehicle
Mass (kg)
RCS (m²)

External: N2YO · Heavens-Above · Gunter

§ Orbital elements

Epoch: 2026-05-25T04:50:58.972416Z

Period
94.32 min
Inclination
97.4695°
Eccentricity
0.0013071
Mean motion
15.26641650 rev/d
Perigee alt
476.9 km
Apogee alt
494.8 km
Semi-major
6,864.0 km
B*
6.9684e-4
RAAN
222.8827°
Arg perigee
87.8132°
Mean anomaly
272.4603°
Rev number
5,599

§ Raw data

2025-108F1 64092U 25108F   26145.20207144  .00018264  00000+0  69684-3 0  99912 64092  97.4695 222.8827 0013071  87.8132 272.4603 15.26641650 55993

JSON: /api/v1/satellites/64092 · /tle

For live sub-satellite position, see the globe view (requires WebGL).

§ Visibility from observer

Set your observer location to see the next 7 days of passes ≥ 10°. The values pass through the URL so the page stays shareable.

No JS? Fill the form by hand. The geolocation button needs JavaScript.